Regional Weather Roundup
Issued by NWS

Home | Current Version | Previous Version | Graphics & Text | Print | Product List | Glossary On
Versions: 1 2 3 4 5 6 7 8 9 10 11 12 13 14 15 16 17 18 19 20 21 22 23 24 25 26 27 28 29 30 31 32 33 34 35 36 37 38 39 40 41 42 43 44 45 46 47 48 49 50
000
ASUS43 KOAX 261510
RWRNE

WEATHER ROUNDUP FOR NEBRASKA
NATIONAL WEATHER SERVICE OMAHA NE
1000 AM CDT THU APR 26 2018

NOTES: SATELLITE DATA IS BEING USED TO AUGMENT CLOUD COVER ABOVE
       12000 FEET.
       "FAIR" INDICATES FEW OR NO CLOUDS BELOW 12,000 FEET WITH NO
       SIGNIFICANT WEATHER AND/OR OBSTRUCTIONS TO VISIBILITY.


NEZ001>004-019>022-054>056-261600-
NEBRASKA PANHANDLE

CITY           SKY/WX    TMP DP  RH WIND       PRES   REMARKS
SCOTTSBLUFF    MOSUNNY   53  34  48 N21       30.24R
ALLIANCE       SUNNY     51  33  50 N24G35    30.20R
CHADRON        SUNNY     54  32  43 N16G23    30.24R
GORDON         FAIR      48  34  57 N18G24    30.20R
KIMBALL        SUNNY     48  31  50 N18G25    30.24R
SIDNEY         MOSUNNY   51  32  48 N24G30    30.21R
$$

NEZ057>060-069>072-079>082-261600-
SOUTHWEST NEBRASKA

CITY           SKY/WX    TMP DP  RH WIND       PRES   REMARKS
NORTH PLATTE   CLOUDY    52  35  52 N26G38    30.07R
IMPERIAL       PTSUNNY   52  35  52 NW26G41   30.12R
LEXINGTON      PTSUNNY   57  39  50 N25       30.04R
MCCOOK         CLOUDY    53  38  56 N25G40    30.01R
OGALLALA       CLOUDY    54  36  50 N25G31    30.15S
$$

NEZ005>010-023>029-035>040-094-261600-
NORTH CENTRAL NEBRASKA

CITY           SKY/WX    TMP DP  RH WIND       PRES   REMARKS
VALENTINE      SUNNY     52  30  43 N23G35    30.13R
AINSWORTH      SUNNY     50  32  49 N31G37    30.11R
BROKEN BOW     CLOUDY    51  36  56 N30G39    30.01R
O`NEILL        PTSUNNY   54  37  52 N29G38    30.00R
ORD            CLOUDY    52  40  63 N17G23    29.99R
THEDFORD       MOSUNNY   51  34  52 N26G37    30.10R
$$

NEZ041-046>049-061>064-073>077-083>087-261600-
SOUTH CENTRAL NEBRASKA

CITY           SKY/WX    TMP DP  RH WIND       PRES   REMARKS
GRAND ISLAND   CLOUDY    52  40  63 W13       29.99R
AURORA         PTSUNNY   53  42  67 W13       29.98S
HASTINGS       CLOUDY    49  41  74 W9        29.99S
HEBRON         MOSUNNY   54  43  68 W6        30.00S
HOLDREGE       MOSUNNY   50  41  70 NW9       30.00R
KEARNEY        SUNNY     53  39  59 N15       30.00R
YORK             N/A     54  41  62 SW13      29.97F
$$

NEZ011>018-030>034-042>045-261600-
NORTHEAST NEBRASKA

CITY           SKY/WX    TMP DP  RH WIND       PRES   REMARKS
NORFOLK        SUNNY     54  38  54 NW15      29.92F
ALBION         SUNNY     55  40  57 NW13      29.96S
BLAIR          CLOUDY    53  39  59 SW10      29.96F
COLUMBUS       MOSUNNY   54  41  61 W10       29.96F
FREMONT        CLOUDY    55  40  57 SW9       29.96F
TEKAMAH        MOSUNNY   56  39  53 SW14      29.95F
WAYNE          MOSUNNY   55  39  53 W16       29.93R
$$

NEZ050>053-065>068-078-088>093-261600-
SOUTHEAST NEBRASKA

CITY           SKY/WX    TMP DP  RH WIND       PRES   REMARKS
LINCOLN        CLOUDY    54  41  61 SW9       30.00F
OMAHA EPPLEY   CLOUDY    56  38  50 SW6       29.97S
BEATRICE       CLOUDY    53  45  74 W8        30.00F
FALLS CITY     CLOUDY    52  40  63 CALM      29.99F
NEBRASKA CITY  CLOUDY    51  43  73 W10       29.99S
PLATTSMOUTH    CLOUDY    54  40  57 W10       29.98S
$$

NEZ044-045-051>053-067-261600-
OMAHA AREA

CITY           SKY/WX    TMP DP  RH WIND       PRES   REMARKS
OMAHA EPPLEY   CLOUDY    56  38  50 SW6       29.97S
BLAIR          CLOUDY    53  39  59 SW10      29.96F
FREMONT        CLOUDY    55  40  57 SW9       29.96F
MILLARD        CLOUDY    54  39  56 W8        29.98S
OFFUTT AFB     CLOUDY    53  40  60 W8        29.97S
PLATTSMOUTH    CLOUDY    54  40  57 W10       29.98S
WAHOO          FAIR      55  38  54 SW7       29.97F
$$




USA.gov is the U.S. government's official web portal to all federal, state and local government web resources and services.